Regional Weather Roundup
Issued by NWS

Home | Current Version | Previous Version | Text Only | Print | Product List | Glossary Off
Versions: 1 2 3 4 5 6 7 8 9 10 11 12 13 14 15 16 17 18 19 20 21 22 23 24 25 26 27 28 29 30 31 32 33 34 35 36 37 38 39 40 41 42 43 44 45 46 47 48 49 50

000
ASUS43 KMPX 011101
RWRMN
WEATHER ROUNDUP FOR MINNESOTA
NATIONAL WEATHER SERVICE TWIN CITIES/CHANHASSEN MN
600 AM CDT TUE SEP 01 2015


NOTE: "FAIR" INDICATES FEW OR NO CLOUDS BELOW 12,000 FEET WITH NO
SIGNIFICANT WEATHER AND/OR OBSTRUCTIONS TO VISIBILITY. N/A MEANS
CURRENT SKY AND/OR WEATHER CONDITIONS ARE NOT AVAILABLE.

MNZ060>063-068>070-011200-
   Twin Cities Metro

CITY           SKY/WX    TMP DP  RH WIND       PRES   REMARKS
TWIN CITIES    MOCLDY    70  66  87 CALM      29.92R
ST PAUL        PTCLDY    68  67  96 SE6       29.92R FOG
CRYSTAL        MOCLDY    72  67  84 S5        29.90R
BLAINE         MOCLDY    72  70  94 S6        29.91R
LAKEVILLE      PTCLDY    64  64 100 CALM      29.92R FOG
EDEN PRAIRIE   MOCLDY    71  67  87 S3        29.91R
SOUTH ST PAUL    N/A     68  67  94 SE3       29.92R FOG
LAKE ELMO      FAIR      66  66 100 CALM      29.93R FOG
$$
MNZ001>005-007-008-013>017-022>024-027-028-011200-
   Northwest Minnesota

CITY           SKY/WX    TMP DP  RH WIND       PRES   REMARKS
BEMIDJI        FOG       53  53 100 CALM      29.91R VSB 1/2
HALLOCK        PTCLDY    50  46  87 CALM      29.84S
ROSEAU         PTCLDY    52  46  82 S3        29.87R
WARROAD        PTCLDY    55  52  88 SW7       29.88R
THIEF RVR FALL PTCLDY   N/A N/A N/A SE5       29.88S
CROOKSTON      PTCLDY    54  54 100 S6        29.88S
FOSSTON        MOCLDY    52  50  93 S3        29.91R FOG
DETROIT LAKES  FOG       61  59  94 CALM      29.93S VSB 1/2
MOORHEAD       FOG       55  55 100 CALM      29.90R VSB 1
PARK RAPIDS    FOG       56  55  97 CALM      29.91S VSB 1/4
MAHNOMEN       FAIR      57  56  98 SE3       29.90S
$$
MNZ006-009>011-018-025>026-011200-
   North Central Minnesota

CITY           SKY/WX    TMP DP  RH WIND       PRES   REMARKS
BAUDETTE       PTCLDY    52  50  93 S3        29.87R
FLAG ISLAND    PTCLDY    61  52  72 SW12      29.83S
INTL FALLS     FOG       53  52  96 CALM      29.88R VSB 3/4
WASKISH        FOG       50  48  93 CALM      29.90R VSB 1/4
BIG FORK       FOG       55  54  94 CALM      29.91S VSB 1
LONGVILLE      MOCLDY    59  57  94 CALM      29.91R FOG
GRAND RAPIDS     N/A     63  59  88 CALM      29.92R VSB<1/4
CRANE LAKE     PTCLDY    54  54 100 CALM      29.91R
ORR            MOCLDY    61  59  94 CALM      29.88R
COOK           CLOUDY    59  59 100 CALM      29.91R VSB 1/2
WALKER         FOG       56  56  99 CALM      29.91R VSB 1/4
$$
MNZ012-019>021-037-011200-
   Northeast Minnesota

CITY           SKY/WX    TMP DP  RH WIND       PRES   REMARKS
DULUTH         CLOUDY    69  67  93 W6        29.90R FOG
ELY            FOG       64  63  94 CALM      29.91R VSB 1/4
HIBBING        FOG       60  59  96 CALM      29.91S VSB 1/4
EVELETH        FOG       63  63 100 CALM      29.92R VSB 1/2
DULUTH HARBOR  CLOUDY    72  70  94 SW5       29.88S
TWO HARBORS    CLOUDY    72  66  83 CALM      29.88R HAZE
SILVER BAY       N/A     68  64  88 CALM      29.87S FOG
GRAND MARAIS     N/A     60  59  96 CALM      29.86S
G MARAIS ARPRT FOG       66  63  88 CALM      29.93R VSB 3/4
$$
MNZ029>031-032-039>041-046>048-054>057-064-011200-
   West Central Minnesota

CITY           SKY/WX    TMP DP  RH WIND       PRES   REMARKS
FERGUS FALLS   CLOUDY    64  64 100 E3        29.90S
WHEATON        CLOUDY    61  59  94 CALM      29.92S FOG
MORRIS         CLOUDY    66  64  94 N3        29.90S FOG
ALEXANDRIA     CLOUDY    68  65  90 CALM      29.93R
ELBOW LAKE     FAIR      67  65  94 CALM      29.91R
WADENA         FOG       61  59  94 CALM      29.92R VSB 1/4
GLENWOOD       CLOUDY    68  66  94 N5        29.92S
APPLETON       CLOUDY    68  64  88 CALM      29.89R
BENSON         CLOUDY    66  64  94 CALM      29.90R FOG
ORTONVILLE     CLOUDY    68  64  88 N6        29.89F
MADISON        CLOUDY    66  66 100 CALM      29.90R FOG
WILLMAR        FAIR      68  66  94 CALM      29.92R FOG
$$
MNZ033>034-036-042>043-049>051-058-059-011200-
   Central Minnesota

CITY           SKY/WX    TMP DP  RH WIND       PRES   REMARKS
ST CLOUD       CLOUDY    68  67  96 S5        29.90R FOG
SAUK CENTRE    FAIR      67  66  97 CALM      29.91S
PAYNESVILLE    CLOUDY    68  67  97 CALM      29.91S
AITKIN         HAZE      63  55  77 CALM      29.90R VSB 1/4
PINE RIVER     FOG       61  61 100 CALM      29.95S VSB 1/4
BRAINERD       FOG       65  64  97 CALM      29.92R VSB 1
STAPLES        CLOUDY    63  63 100 CALM      29.92S FOG
LONG PRAIRIE   FAIR      64  64 100 CALM      29.92S
LITTLE FALLS   CLOUDY    66  64  94 CALM      29.91S FOG
LITCHFIELD     MOCLDY    70  70 100 CALM      29.91R
BUFFALO        MOCLDY    69  65  88 CALM      29.92R
MAPLE LAKE     MOCLDY    68  67  95 CALM      29.92R FOG
$$
MNZ037-044-045-052-053-011200-
   East Central Minnesota

CITY           SKY/WX    TMP DP  RH WIND       PRES   REMARKS
PRINCETON      CLOUDY    70  66  88 CALM      29.91R
MORA             N/A     66  64  94 CALM      29.92R FOG
CAMBRIDGE      CLOUDY    72  63  73 S3        29.89R
RUSH CITY      MOCLDY    69  67  94 CALM      29.91R
MOOSE LAKE       N/A     68  66  94 CALM      29.89R FOG
HINCKLEY       FAIR      68  68 100 CALM      29.90S FOG
CLOQUET        CLOUDY    70  66  88 CALM      29.90S FOG
MCGREGOR         N/A     64  64 100 CALM      29.91S VSB 1
$$
MNZ071>073-080-081-089-090-097-098-011200-
   Southwest Minnesota

CITY           SKY/WX    TMP DP  RH WIND       PRES   REMARKS
MONTEVIDEO     CLOUDY    66  64  94 CALM      29.91S FOG
GRANITE FALLS  CLOUDY    67  66  98 CALM      29.90S FOG
CANBY          CLOUDY    67  65  93 CALM      29.91S
MARSHALL       CLOUDY    70  64  83 W3        29.93R
REDWOOD FALLS  MOCLDY    67  66  97 E3        29.89S FOG
OLIVIA         CLOUDY    68  64  88 SE3       29.89S FOG
PIPESTONE      CLOUDY    66  64  94 CALM      29.91S FOG
WINDOM         CLEAR     64  63  94 CALM      29.92R
WORTHINGTON    PTCLDY    66  63  88 SW3       29.93R
JACKSON        CLEAR     68  64  88 S5        29.93S
TRACY          MOCLDY    69  66  90 SW8       29.90R
SLAYTON        MOCLDY    64  64 100 CALM      29.93R FOG
$$
MNZ065>067-074>077-082>085-091>093-011200-
   South Central Minnesota

CITY           SKY/WX    TMP DP  RH WIND       PRES   REMARKS
MANKATO        PTCLDY    66  63  88 S6        29.92R
NEW ULM        PTCLDY    64  64 100 SE3       29.90S
ST JAMES       PTCLDY    66  64  94 SE6       29.92S
FAIRMONT       CLEAR     63  57  82 S6        29.92S
GLENCOE        PTCLDY    67  67  97 CALM      29.91S
FARIBAULT      PTCLDY    66  64  94 CALM      29.93S FOG
OWATONNA       PTCLDY    70  66  88 SE7       29.94S FOG
WASECA         PTCLDY    63  61  94 SE3       29.94S FOG
ALBERT LEA     MOCLDY    68  66  94 S3        29.95R FOG
$$
MNZ078>079-086>088-094>096-011200-
   Southeast Minnesota

CITY           SKY/WX    TMP DP  RH WIND       PRES   REMARKS
ROCHESTER      FOG       66  66 100 S6        29.97R VSB 1/4
RED WING       PTCLDY    70  68  94 SE5       29.92S FOG
STANTON        PTCLDY    68  65  89 S3        29.92R FOG
DODGE CENTER   FOG       66  64  94 S5        29.96S VSB 1
WINONA         CLEAR     70  68  94 SE3       29.95S FOG
AUSTIN         FOG       66  66 100 CALM      29.95F VSB 1/4
PRESTON        FOG       67  66  95 S3        29.98S VSB<1/4
$$
ABBREVIATIONS USED IN REMARKS
   TC - TEMPERATURES IN CELSIUS
  WCI - WIND CHILL INDEX
   HX - HEAT INDEX
  VSB - VISIBILITY
$$



USA.gov is the U.S. government's official web portal to all federal, state and local government web resources and services.